TimeHST,TemperatureF,Dew PointF,Humidity,Sea Level PressureIn,VisibilityMPH,Wind Direction,Wind SpeedMPH,Gust SpeedMPH,PrecipitationIn,Events,Conditions,WindDirDegrees,DateUTC
12:53 AM,71.1,63.0,75,30.10,10.0,SW,6.9,-,N/A,,Mostly Cloudy,230,2011-10-03 10:53:00
1:53 AM,69.1,60.1,73,30.09,10.0,SW,6.9,-,N/A,,Partly Cloudy,230,2011-10-03 11:53:00
2:53 AM,69.1,59.0,70,30.09,10.0,SW,8.1,-,N/A,,Scattered Clouds,230,2011-10-03 12:53:00
3:53 AM,68.0,57.0,68,30.08,10.0,WSW,9.2,-,N/A,,Partly Cloudy,240,2011-10-03 13:53:00
4:53 AM,66.9,54.0,63,30.09,10.0,WSW,9.2,-,N/A,,Partly Cloudy,240,2011-10-03 14:53:00
5:53 AM,66.9,54.0,63,30.10,10.0,SW,8.1,-,N/A,,Partly Cloudy,220,2011-10-03 15:53:00
6:53 AM,69.1,52.0,54,30.11,10.0,SW,6.9,-,N/A,,Mostly Cloudy,230,2011-10-03 16:53:00
7:53 AM,72.0,57.0,59,30.14,10.0,ESE,4.6,-,N/A,,Mostly Cloudy,120,2011-10-03 17:53:00
8:40 AM,73.4,69.8,88,30.16,7.0,SE,8.1,-,0.00,Rain,Light Rain,130,2011-10-03 18:40:00
8:53 AM,73.0,68.0,84,30.16,10.0,ESE,4.6,-,0.00,,Overcast,120,2011-10-03 18:53:00
9:11 AM,75.2,68.0,78,30.16,10.0,West,4.6,-,N/A,,Overcast,270,2011-10-03 19:11:00
9:53 AM,77.0,66.0,69,30.15,10.0,WSW,5.8,-,N/A,,Mostly Cloudy,250,2011-10-03 19:53:00
10:53 AM,78.1,69.1,74,30.14,10.0,SW,5.8,-,0.00,,Mostly Cloudy,220,2011-10-03 20:53:00
11:53 AM,81.0,69.1,67,30.12,10.0,Variable,5.8,-,N/A,,Mostly Cloudy,0,2011-10-03 21:53:00
12:53 PM,84.0,66.0,55,30.10,10.0,East,5.8,-,N/A,,Mostly Cloudy,80,2011-10-03 22:53:00
1:53 PM,84.0,66.9,56,30.09,10.0,ESE,9.2,-,N/A,,Mostly Cloudy,110,2011-10-03 23:53:00
2:53 PM,84.0,66.9,56,30.08,10.0,East,4.6,-,N/A,,Mostly Cloudy,90,2011-10-04 00:53:00
3:53 PM,82.0,66.0,58,30.09,10.0,East,6.9,-,N/A,,Mostly Cloudy,100,2011-10-04 01:53:00
4:53 PM,82.0,66.0,58,30.10,10.0,East,4.6,-,N/A,,Clear,90,2011-10-04 02:53:00
5:53 PM,77.0,66.0,69,30.12,10.0,Calm,Calm,-,N/A,,Clear,0,2011-10-04 03:53:00
6:53 PM,75.0,66.9,76,30.13,10.0,Calm,Calm,-,N/A,,Clear,0,2011-10-04 04:53:00
7:53 PM,73.0,66.0,79,30.15,10.0,WSW,3.5,-,N/A,,Partly Cloudy,240,2011-10-04 05:53:00
8:53 PM,73.0,63.0,71,30.16,10.0,WSW,5.8,-,N/A,,Partly Cloudy,250,2011-10-04 06:53:00
9:53 PM,72.0,64.0,76,30.17,10.0,East,8.1,-,N/A,,Mostly Cloudy,90,2011-10-04 07:53:00
10:53 PM,71.1,64.9,81,30.17,10.0,SW,6.9,-,0.00,,Scattered Clouds,230,2011-10-04 08:53:00
11:53 PM,72.0,61.0,68,30.14,10.0,WSW,5.8,-,N/A,,Partly Cloudy,250,2011-10-04 09:53:00